STARLINK-34346, 64155

Orbit data source: Space-Track

STARLINK-34346, 64155 is a payload satellite owned by SpaceX/Seattle (US) in SSO that was launched on Tue, 27 May 2025 UTC via an FALCON 9 launch vehicle from the Air Force Western Test Range (AFWTR). Payload-class satellites include a variety of spacecraft equipped with specific instruments for various scientific and technological missions. These include communications satellites like Starlink; space stations such as the ISS; scientific satellites like the Hubble; Earth observation satellites from companies like Planet Labs, Umbra, and HawkEye 360; GPS; miniature CubeSats for education and research; and military/defense satellites.

Loading next visibility...
Identifier
64155, 2025-112K
Orbit
SSO
Country
Flag of USUS
Related business
Manufacturer
SpaceX/Seattle
Mission
Operational Commercial Communications
Bus & Motor
STARLINK V2MO, Unknown motor
Mass
575 kg wet, ~530 kg dry
Launch date (UTC)
2025-05-27 (1 year ago)
Launch vehicle
FALCON 9
Launch site
Air Force Western Test Range (AFWTR)
Object type
Payload
Rocket body
Debris
Shape & HBR
Box + 2 Pan, 17.7 m
Radar Cross Section
36.964 m², Large (>1 m²)

Expand to show TLE details & history
Last TLE update: 16 hours ago

TLE from 16 hours ago
0 STARLINK-34346
1 64155U 25112K   26192.71616648  .00004420  00000-0  30981-3 0  9995
2 64155  97.2836 241.8888 0001620 118.9948 241.1442 15.05682843 61979
Epoch: 2026-07-11T17:11Z
TLE epoch observation values (Epoch: 2026-07-11T17:11:16.783Z)
Latitude
-0.00007°
Longitude
54.44349°
Altitude
553.027 km
Speed
7.585 km/s
True Right ascension
16h 07m 33s
True Declination
0° 00' 00"
Sunlit
Object was in full shadow at epoch
Visualization orbit readout
Latitude
Unknown
Longitude
Unknown
Altitude
Unknown
Speed
Unknown
Apparent Right ascension
Unknown
Apparent Declination
Unknown
Sunlit
N/A
Visualization observer readout
Local Sidereal Time
21:12:50
Azimuth
Unknown
Elevation
Unknown
Doppler factor
Unknown
Orbital elements
Apogee altitude
547.512 km
Perigee altitude
545.268 km
Semi-major axis
6,924.527 km
Eccentricity
0.00016
Inclination
97.2836°
RAAN
241.8888°
Arg. of periapsis
118.9948°
True anomaly
241.12794°
Mean anomaly
241.1442°
Eccentric anomaly
241.13607°
Mean motion
3.76667 °/min
Orbital period
95.58 mins
BSTAR
0.00030981
Loading maneuver chart data...
Computing Atmospheric mass density...
Loading historical data...
Loading historical data...
Loading historical data...
Loading historical data...
Loading historical data...
Loading historical data...
Loading historical data...

Documentation

Showing up to 5 results
|